Showing default

GONETS M 16 (M26), 44907

Orbit data source: Space-Track

GONETS M 16 (M26), 44907 is a payload satellite owned by Gonets (CIS) in LEO that was launched on Thu, 26 Dec 2019 UTC via an ROKOT launch vehicle from the Plesetsk Missile And Space Complex (PKMTR). Payload-class satellites include a variety of spacecraft equipped with specific instruments for various scientific and technological missions. These include communications satellites like Starlink; space stations such as the ISS; scientific satellites like the Hubble; Earth observation satellites from companies like Planet Labs, Umbra, and HawkEye 360; GPS; miniature CubeSats for education and research; and military/defense satellites.

Loading next visibility...
Identifier
44907, 2019-096C
Orbit
LEO
Last TLE update
9 hours ago
Origin
Manufacturer
Resehetnev ISS
Mission
Operational Commercial Communications
Bus & Motor
STRELA-3M, Unknown motor
Mass
225 kg wet, 225 kg dry
Launch date (UTC)
2019-12-26 (6 years ago)
Launch vehicle
ROKOT
Launch site
Plesetsk Missile And Space Complex (PKMTR)
Object type
Payload
Rocket body
Debris
Shape & HBR
Cyl + 1 Ant, 7 m
Radar Cross Section
1.798 m², Large (>1 m²)

Expand to show TLE details & history

TLE from 9 hours ago
0 GONETS M 16 (M26)
1 44907U 19096C   25186.88277987  .00000010  00000-0 -18960-5 0  9998
2 44907  82.5212 298.8242 0010442 248.5636 111.4331 12.42854927250618
Epoch: 2025-07-05T21:11Z
TLE epoch observation values (Epoch: 2025-07-05T21:11:12.18Z)
Latitude
0.00004°
Longitude
56.90901°
Altitude
1,500.236 km
Speed
7.113 km/s
True Right ascension
19h 55m 17s
True Declination
0° 00' 00"
Sunlit
Object was in full shadow at epoch
Visualization orbit readout
Latitude
-14.22107°
Longitude
-121.42033°
Altitude
1,495.284 km
Speed
7.118 km/s
Apparent Right ascension
07h 12m 38s
Apparent Declination
-26° 24' 01"
Sunlit
Object is in daylight
Visualization observer readout
Local Sidereal Time
17:54:51
Azimuth
303.974° NW
Elevation
-68.927°
Doppler factor
1
Orbital elements
Apogee altitude
1,500.092 km
Perigee altitude
1,483.657 km
Semi-major axis
7,870.012 km
Eccentricity
0.00104
Inclination
82.5212°
RAAN
298.8242°
Arg. of periapsis
248.5636°
True anomaly
Unknown
Mean anomaly
111.4331°
Eccentric anomaly
Unknown
Mean motion
3.10871 °/min
Orbital period
115.8 mins
BSTAR
-0.000001896
Loading maneuver chart data...
Loading SW <> Apogee altitude chart data...
Loading historical data...
Loading historical data...
Loading historical data...
Loading historical data...
Loading historical data...
Loading historical data...
Loading historical data...
Other satellites on launch #96 in the year 2019 (2019-12-26 UTC)

GONETS M 16 (M26) Visibility forecast

Observer location: undefined°, undefined°

Span
Click to sort rows by Start time (UTC) header in descending order
Start Az.
Max El. time (UTC)
Max El. Az.
Max El.
End time (UTC)
End Az.
13 mins2025-07-06 06:57:25.829Z137.025° SSE2025-07-06 07:03:25.829Z87.697° E27.398°2025-07-06 07:10:25.829Z29.092° NE
15 mins2025-07-06 08:53:25.829Z210.458° SW2025-07-06 09:00:25.829Z291.078° WNW39.331°2025-07-06 09:08:25.829Z359.357° N
6 mins2025-07-06 17:10:25.829Z42.751° NE2025-07-06 17:12:25.829Z57.416° ENE13.66°2025-07-06 17:16:25.829Z85.915° E
16 mins2025-07-06 19:03:25.829Z356.8° N2025-07-06 19:11:25.829Z94.411° ESE43.716°2025-07-06 19:19:25.829Z165.346° S
10 mins2025-07-06 21:02:25.829Z317.437° NNW2025-07-06 21:07:25.829Z276.263° WNW20.965°2025-07-06 21:12:25.829Z237.803° WSW
|